Wind_Speed
29 29 29 28 28 28 28 28 28 28 28 28 28 29 30 30 30 30 29 30 30 30 29 30 30 31 31 31 31 30 30 29 30 29 28 28 28 27 27 27 27 27 27
31 31 31 31 31 31 30 30 30 30 31 31 31 32 32 32 33 33 33 32 32 32 32 32 32 33 33 33 32 32 32 31 31 31 31 30 30 30 30 30 29 29 28
34 33 33 33 33 33 33 33 33 33 33 33 33 34 34 34 35 35 35 35 34 35 35 35 34 35 35 35 35 34 34 34 34 33 33 33 33 32 32 32 32 32 31
36 36 35 35 35 34 35 35 35 36 36 35 36 36 36 37 37 38 38 37 36 36 37 37 37 37 37 37 38 38 37 37 37 36 36 36 36 35 35 34 34 34 34
38 38 38 37 37 37 37 38 37 37 38 38 38 38 38 39 39 39 40 40 39 39 39 39 39 40 40 40 40 40 41 40 40 39 39 39 39 38 38 38 37 37 37
40 40 39 40 39 39 39 40 39 39 40 40 40 40 40 41 41 41 42 42 42 42 42 42 42 42 42 42 42 43 43 43 43 43 42 42 42 41 41 41 41 40 40
41 42 42 42 41 41 41 41 42 41 41 41 42 43 43 43 43 43 43 43 43 43 44 44 44 44 44 44 44 45 45 46 45 45 44 44 44 44 44 44 43 43 43
43 43 44 43 43 44 44 43 43 43 44 44 44 44 44 44 44 45 45 45 46 45 45 46 46 47 47 47 48 47 47 47 47 47 47 47 48 48 47 47 47 47 46
44 44 44 45 45 45 45 45 45 45 45 45 46 46 46 46 46 46 47 47 48 48 48 48 48 48 49 50 50 49 49 49 50 50 50 49 50 50 50 50 50 50 48
45 45 46 46 46 47 47 47 47 48 47 46 47 48 49 49 49 48 49 49 49 50 50 50 50 50 50 51 51 52 51 51 52 53 53 53 52 51 51 51 51 50 50
46 46 47 47 47 48 48 49 49 49 49 50 49 50 50 51 51 51 51 51 51 51 51 51 51 52 52 53 53 54 54 54 54 54 54 54 53 52 51 51 51 51 51
46 47 47 47 48 48 49 49 49 49 50 51 51 51 51 52 52 53 53 53 53 53 53 53 54 54 54 54 55 55 56 55 55 55 54 54 54 54 54 54 54 53 52
47 47 48 48 49 49 50 50 50 50 50 50 51 52 52 52 52 53 53 54 54 54 54 54 55 55 55 55 55 56 56 56 56 55 55 55 56 56 56 56 56 55 54
48 48 49 49 49 50 50 50 51 51 51 51 51 51 52 52 53 53 53 54 54 54 54 55 55 55 55 55 55 55 55 55 55 55 55 56 56 56 56 57 57 57 56
48 49 49 49 49 50 50 51 51 52 52 52 52 52 52 53 54 53 53 54 54 53 53 54 56 55 56 55 55 54 54 54 54 54 55 56 57 57 57 58 58 58 58
48 49 49 50 50 51 51 52 52 52 53 53 53 53 53 53 54 54 55 55 55 56 55 54 55 56 56 56 55 55 55 54 54 54 55 55 56 57 57 58 59 59 59
47 48 48 49 50 51 51 52 53 53 54 54 54 54 54 53 54 55 56 56 56 56 56 55 57 57 57 56 56 56 55 55 55 55 55 55 55 56 57 57 58 59 60
47 48 48 49 50 51 51 52 53 54 54 54 54 54 55 55 54 55 55 55 56 56 56 56 55 56 56 57 56 55 55 55 55 55 54 55 55 56 57 57 57 58 58
47 48 48 49 50 51 51 52 52 53 54 54 54 54 54 55 55 54 54 54 54 55 55 55 54 54 55 55 55 55 55 54 54 54 54 55 55 55 56 56 57 57 58
47 47 48 49 50 51 51 52 52 52 53 53 53 53 53 53 53 53 53 54 53 53 54 54 54 53 54 55 54 54 54 54 53 53 54 54 54 54 54 55 55 55 56
48 48 49 49 50 51 51 51 51 51 51 51 52 52 53 53 53 53 53 53 53 53 54 54 54 54 54 54 54 54 54 54 53 54 54 53 53 53 53 53 53 53 53
48 49 49 49 50 51 51 50 50 50 50 50 50 51 52 53 53 53 53 53 53 53 53 53 53 53 53 53 53 53 53 53 52 53 53 53 52 52 51 51 52 52 52
48 49 49 49 50 50 50 50 50 49 49 49 50 51 51 52 52 52 52 52 52 52 52 52 52 52 51 51 52 52 51 51 51 52 53 52 52 52 51 51 51 52 52
47 47 48 49 49 49 49 49 49 49 49 49 50 50 51 51 51 52 52 51 51 51 51 51 51 50 50 49 50 50 50 50 50 51 52 51 50 51 51 50 50 50 51
46 47 47 47 47 47 47 47 48 48 48 49 49 50 50 50 50 50 50 50 50 50 51 50 49 49 49 49 50 50 50 49 49 49 50 50 49 49 49 50 49 49 50
46 46 45 45 45 45 46 46 47 48 48 48 49 49 49 49 49 49 49 48 48 49 49 49 49 49 49 49 50 50 50 49 48 48 48 49 48 48 48 48 49 49 49
Wind_Direction
261 262 262 263 264 265 266 266 266 266 266 267 267 267 266 266 266 266 267 266 265 265 266 266 265 264 264 263 264 263 263 263 261 262 262 263 263 263 263 263 263 263 264
261 262 262 263 264 265 266 267 267 267 268 267 267 268 268 267 267 267 268 268 266 265 266 266 266 265 264 264 264 263 263 261 261 263 263 264 262 263 264 264 264 263 263
262 262 263 264 265 266 266 267 268 268 268 268 268 268 269 268 268 268 268 268 267 266 266 267 267 266 264 264 264 264 263 262 263 263 263 263 263 264 264 264 265 263 262
261 262 262 264 265 265 267 268 268 269 269 269 268 269 269 269 268 268 268 268 267 267 267 267 267 266 265 264 263 263 264 264 263 264 264 264 264 264 263 263 263 263 262
261 261 262 264 264 266 268 268 268 269 270 270 270 269 269 269 269 268 268 268 267 267 267 267 266 266 265 264 264 264 264 264 263 263 263 264 263 263 263 262 263 263 262
261 262 262 264 265 266 268 268 269 269 270 270 270 270 270 270 269 268 268 267 267 267 267 267 266 266 265 264 264 264 264 264 263 263 263 263 263 262 262 262 263 262 261
262 262 263 264 265 266 268 269 270 271 271 270 270 270 269 270 270 269 268 267 267 268 267 266 266 265 265 264 264 265 265 265 264 264 263 263 262 262 262 262 261 260 261
263 263 263 264 265 267 268 269 271 271 271 271 271 271 270 269 269 269 269 268 267 267 267 267 266 266 266 265 266 266 266 266 265 264 264 263 263 262 262 261 261 260 260
263 264 264 265 266 267 268 269 269 271 271 273 273 272 271 270 269 269 269 269 267 266 266 267 267 267 267 268 267 267 267 266 266 266 265 264 264 263 262 261 260 259 259
264 265 265 266 267 268 268 269 270 271 272 273 273 273 272 272 271 269 269 269 268 267 267 267 267 267 268 268 268 268 268 267 267 266 265 264 264 263 261 260 260 259 258
264 265 266 267 268 268 269 270 271 272 273 273 274 275 274 274 273 271 269 269 269 269 268 267 267 267 268 269 269 269 268 267 267 266 266 264 263 262 261 260 259 259 258
265 266 266 268 268 269 270 271 272 273 273 274 274 275 275 275 274 273 271 269 268 268 268 268 268 268 269 269 269 269 269 268 266 266 265 263 262 261 260 260 259 259 258
266 266 267 268 269 270 271 272 272 273 274 274 275 275 275 275 274 273 272 270 269 268 269 269 270 270 270 269 270 269 268 267 266 265 264 263 262 261 260 260 259 259 258
267 267 268 268 269 270 271 272 273 273 274 275 275 276 276 275 274 274 273 271 270 268 268 269 269 270 270 269 269 268 267 267 266 266 265 263 262 261 260 260 260 259 258
267 268 268 269 270 270 271 272 273 274 274 275 275 276 276 276 275 274 273 272 271 270 269 269 269 269 269 269 268 267 267 266 265 265 265 264 262 262 261 261 260 259 258
268 268 269 269 270 270 271 272 273 274 275 275 276 276 276 276 275 274 274 273 272 271 269 269 269 269 269 268 267 266 266 266 266 265 265 264 263 262 262 261 260 259 258
269 269 269 270 271 272 272 273 274 275 276 276 276 276 275 275 275 276 275 274 274 272 270 269 269 269 268 267 266 266 266 266 266 266 265 264 263 263 262 262 262 260 259
269 270 270 271 271 272 273 275 275 276 276 276 276 275 275 275 276 276 276 275 274 273 272 270 269 268 268 267 267 266 266 265 265 265 265 264 264 263 263 262 262 261 259
271 271 271 271 272 273 274 275 276 276 276 276 275 275 276 276 276 275 275 275 274 274 272 271 269 268 267 267 267 266 265 265 265 265 265 264 264 264 264 263 262 260 259
272 273 272 272 273 274 275 275 276 276 276 276 276 276 276 276 276 275 275 275 275 274 273 272 270 269 268 267 267 266 265 266 265 265 264 264 264 265 264 263 262 261 259
273 273 273 273 273 274 275 276 276 277 277 276 276 276 276 276 276 276 275 275 275 275 275 273 272 270 269 268 267 266 266 266 265 265 265 264 264 264 264 263 261 260 258
273 274 274 274 275 275 276 276 277 277 278 277 277 277 276 276 276 276 277 276 276 276 275 275 274 271 270 268 267 267 267 266 265 265 265 264 264 263 263 262 261 260 258
274 275 276 276 276 277 277 277 277 278 278 278 278 278 278 277 277 277 277 277 277 277 276 276 274 272 270 268 268 268 267 266 265 264 264 263 263 263 262 262 261 260 259
276 277 277 276 276 276 277 277 277 277 278 278 279 279 279 278 278 277 277 277 277 276 277 276 274 271 270 269 268 268 267 267 266 264 263 262 262 262 262 261 261 260 258
278 278 277 276 277 277 276 277 278 278 278 278 279 279 279 279 279 278 278 277 277 276 277 276 274 271 269 268 267 267 266 266 265 264 264 263 262 262 261 260 259 258 257
279 278 277 277 277 277 278 278 278 278 278 279 280 280 280 279 279 278 278 278 277 276 276 275 273 270 269 267 266 266 265 266 265 265 264 264 262 261 260 259 259 259 258
Height
5770 5771 5771 5772 5773 5774 5775 5776 5777 5778 5779 5780 5781 5782 5783 5784 5785 5786 5786 5787 5788 5789 5790 5791 5791 5792 5793 5794 5794 5795 5796 5797 5798 5799 5800 5801 5803 5804 5805 5806 5806 5807 5808
5762 5763 5764 5765 5766 5767 5768 5768 5769 5770 5771 5772 5773 5774 5775 5776 5777 5778 5779 5780 5780 5781 5782 5783 5783 5784 5785 5786 5787 5788 5789 5789 5790 5791 5793 5794 5795 5797 5798 5799 5800 5801 5802
5755 5756 5757 5758 5758 5759 5760 5761 5761 5762 5763 5764 5765 5766 5767 5768 5769 5769 5770 5771 5772 5773 5774 5774 5775 5776 5777 5778 5779 5780 5781 5782 5783 5784 5785 5786 5788 5789 5790 5791 5792 5793 5795
5746 5747 5748 5749 5750 5750 5751 5752 5753 5754 5754 5755 5756 5757 5758 5759 5759 5760 5761 5762 5763 5764 5765 5765 5766 5767 5768 5769 5770 5771 5772 5773 5774 5775 5776 5777 5779 5780 5781 5783 5784 5785 5787
5736 5738 5739 5740 5740 5741 5742 5742 5743 5744 5745 5746 5747 5747 5748 5749 5750 5750 5751 5752 5753 5754 5755 5755 5756 5757 5758 5759 5760 5761 5762 5763 5765 5766 5767 5768 5769 5770 5772 5773 5775 5776 5778
5726 5727 5728 5729 5730 5731 5732 5733 5733 5734 5735 5736 5736 5737 5738 5738 5739 5739 5740 5741 5742 5743 5744 5745 5746 5747 5748 5748 5750 5751 5752 5753 5754 5755 5756 5758 5759 5760 5761 5763 5765 5766 5768
5715 5717 5718 5719 5720 5721 5721 5722 5723 5723 5724 5725 5726 5726 5727 5727 5728 5728 5729 5730 5730 5731 5732 5733 5734 5735 5736 5737 5738 5739 5740 5741 5742 5744 5745 5746 5747 5748 5750 5751 5753 5755 5757
5704 5705 5706 5708 5709 5709 5710 5711 5711 5712 5712 5713 5714 5714 5715 5717 5717 5717 5717 5718 5718 5719 5720 5721 5721 5722 5723 5724 5726 5727 5728 5729 5730 5731 5732 5733 5734 5735 5737 5739 5740 5742 5745
5693 5694 5695 5696 5697 5698 5698 5699 5700 5700 5700 5701 5701 5702 5703 5704 5705 5706 5705 5705 5706 5706 5707 5708 5708 5709 5710 5711 5712 5713 5714 5715 5716 5717 5718 5719 5720 5722 5723 5725 5726 5728 5731
5681 5682 5683 5683 5684 5685 5686 5687 5687 5687 5688 5688 5688 5688 5689 5689 5691 5693 5693 5693 5693 5693 5693 5694 5694 5695 5696 5697 5698 5698 5700 5701 5701 5702 5703 5705 5706 5707 5709 5711 5713 5715 5717
5668 5669 5670 5671 5672 5672 5673 5673 5674 5674 5674 5675 5674 5674 5674 5674 5675 5677 5679 5679 5679 5679 5679 5679 5679 5680 5681 5682 5682 5683 5684 5685 5686 5686 5688 5689 5691 5692 5694 5696 5698 5700 5703
5656 5657 5658 5658 5659 5659 5660 5660 5660 5661 5661 5661 5660 5660 5660 5660 5660 5661 5663 5664 5664 5665 5664 5664 5664 5665 5666 5666 5666 5667 5667 5668 5669 5670 5671 5673 5675 5677 5678 5680 5683 5686 5688
5643 5644 5645 5645 5646 5646 5647 5647 5647 5647 5647 5647 5646 5646 5645 5645 5645 5645 5646 5647 5649 5649 5649 5648 5648 5648 5649 5650 5650 5650 5651 5651 5652 5653 5655 5656 5658 5660 5662 5664 5667 5670 5673
5630 5631 5632 5632 5632 5633 5633 5633 5634 5634 5633 5633 5632 5631 5631 5630 5629 5629 5629 5630 5632 5634 5634 5633 5632 5632 5632 5633 5633 5633 5634 5635 5635 5637 5638 5639 5641 5643 5645 5648 5650 5653 5657
5617 5617 5618 5619 5619 5619 5619 5620 5620 5620 5619 5619 5618 5617 5616 5615 5614 5613 5613 5613 5614 5617 5619 5618 5617 5616 5616 5616 5616 5617 5618 5618 5619 5620 5621 5622 5623 5625 5627 5630 5633 5636 5639
5604 5604 5605 5605 5605 5606 5606 5605 5606 5605 5605 5604 5603 5602 5601 5600 5599 5598 5598 5597 5597 5598 5601 5603 5601 5600 5600 5600 5600 5601 5602 5602 5603 5603 5603 5604 5606 5608 5610 5612 5614 5617 5621
5591 5591 5591 5591 5592 5592 5592 5591 5591 5591 5590 5589 5588 5587 5586 5585 5584 5583 5582 5581 5581 5581 5583 5585 5584 5584 5583 5584 5584 5584 5585 5586 5586 5586 5587 5588 5589 5591 5592 5594 5596 5599 5602
5578 5578 5578 5578 5578 5578 5577 5577 5577 5576 5575 5574 5573 5572 5571 5570 5569 5568 5566 5565 5564 5564 5565 5567 5567 5567 5567 5566 5567 5567 5568 5568 5569 5569 5570 5571 5572 5574 5575 5577 5578 5580 5583
5565 5564 5564 5564 5564 5564 5563 5562 5562 5561 5560 5559 5558 5557 5555 5554 5553 5552 5550 5549 5548 5548 5548 5549 5550 5550 5549 5549 5550 5550 5550 5551 5552 5553 5554 5555 5556 5557 5558 5559 5560 5562 5565
5552 5551 5551 5550 5550 5549 5549 5548 5547 5546 5545 5543 5542 5541 5540 5539 5538 5536 5535 5534 5533 5532 5531 5531 5532 5533 5533 5532 5533 5534 5535 5535 5536 5537 5537 5539 5540 5541 5542 5543 5545 5546 5548
5539 5538 5537 5536 5536 5535 5534 5533 5532 5531 5530 5528 5527 5526 5525 5523 5522 5521 5520 5519 5517 5517 5516 5515 5515 5516 5516 5516 5516 5517 5518 5519 5520 5520 5522 5523 5524 5526 5526 5527 5528 5530 5532
5525 5524 5523 5522 5521 5520 5519 5518 5517 5516 5515 5514 5513 5511 5510 5508 5507 5506 5504 5503 5502 5501 5500 5499 5499 5499 5500 5499 5499 5500 5501 5503 5506 5507 5507 5508 5508 5510 5510 5512 5513 5514 5516
5511 5510 5509 5508 5507 5506 5505 5504 5503 5502 5501 5499 5498 5497 5495 5494 5492 5491 5489 5487 5486 5485 5484 5483 5483 5483 5483 5484 5484 5485 5485 5486 5489 5490 5490 5493 5493 5495 5495 5496 5498 5500 5501
5498 5496 5495 5494 5493 5492 5491 5489 5488 5487 5487 5485 5484 5482 5481 5479 5477 5476 5474 5473 5471 5470 5469 5468 5468 5468 5467 5467 5468 5469 5470 5472 5474 5474 5474 5477 5479 5479 5481 5482 5483 5485 5487
5484 5483 5481 5480 5479 5478 5477 5476 5474 5473 5473 5471 5469 5468 5466 5464 5463 5461 5460 5459 5458 5456 5454 5453 5453 5452 5452 5452 5452 5453 5455 5456 5458 5460 5459 5461 5464 5465 5467 5468 5469 5470 5472
5471 5470 5468 5467 5466 5465 5463 5462 5460 5460 5459 5457 5456 5454 5452 5450 5448 5446 5445 5444 5443 5442 5440 5439 5438 5437 5437 5437 5437 5438 5439 5440 5443 5445 5446 5446 5448 5449 5452 5455 5456 5457 5458